• In Deutschland
  • Länderverzeichnis
  • Für 7 Tage
  • Wassertemperatur
  • Satellitenkarten
  • Wetterkarte
  • Widgets
  • user-avatar
    Anmelden

    Stündliche Wetter Severnyy

    Heute, 22 September, Samstag

    Zeit Temperatur Niederschläge Wind Luftdruck Luftfeuchtigkeit
    00:00 -1°C° 0.1 mm 2 m/S 657 mmHg 90%
    01:00 +1°C° 0 mm 1 m/S 657 mmHg 91%
    02:00 0°C° 0 mm 1 m/S 658 mmHg 92%
    03:00 0°C° 0 mm 1 m/S 658 mmHg 93%
    04:00 0°C° 0 mm 1 m/S 658 mmHg 94%
    05:00 0°C° 0 mm 1 m/S 659 mmHg 92%
    06:00 +1°C° 0 mm 1 m/S 659 mmHg 90%
    07:00 +2°C° 0 mm 1 m/S 660 mmHg 85%
    08:00 +4°C° 0 mm 1 m/S 660 mmHg 76%
    09:00 +6°C° 0 mm 1 m/S 661 mmHg 68%
    10:00 +7°C° 0 mm 2 m/S 661 mmHg 60%
    11:00 +8°C° 0 mm 2 m/S 661 mmHg 56%
    12:00 +9°C° 0 mm 2 m/S 661 mmHg 52%
    13:00 +9°C° 0 mm 2 m/S 662 mmHg 50%
    14:00 +9°C° 0 mm 2 m/S 661 mmHg 51%
    15:00 +9°C° 0 mm 2 m/S 661 mmHg 52%
    16:00 +9°C° 0 mm 2 m/S 661 mmHg 53%
    17:00 +6°C° 0 mm 2 m/S 661 mmHg 63%
    18:00 +5°C° 0 mm 1 m/S 660 mmHg 72%
    19:00 +3°C° 0 mm 1 m/S 659 mmHg 81%
    20:00 +2°C° 0 mm 1 m/S 659 mmHg 82%
    21:00 +2°C° 0 mm 1 m/S 659 mmHg 84%
    22:00 0°C° 0 mm 0 m/S 659 mmHg 86%
    23:00 0°C° 0 mm 0 m/S 659 mmHg 87%

    Morgen, 23 September, Sonntag

    Zeit Temperatur Niederschläge Wind Luftdruck Luftfeuchtigkeit
    00:00 -1°C° 0 mm 0 m/S 659 mmHg 87%
    01:00 -1°C° 0 mm 0 m/S 659 mmHg 88%
    02:00 -1°C° 0 mm 0 m/S 659 mmHg 88%
    03:00 0°C° 0 mm 1 m/S 659 mmHg 89%
    04:00 0°C° 0 mm 1 m/S 658 mmHg 89%
    05:00 0°C° 0 mm 1 m/S 659 mmHg 86%
    06:00 +1°C° 0 mm 1 m/S 659 mmHg 82%
    07:00 +2°C° 0 mm 1 m/S 659 mmHg 79%
    08:00 +5°C° 0 mm 1 m/S 660 mmHg 70%
    09:00 +7°C° 0 mm 1 m/S 660 mmHg 61%
    10:00 +9°C° 0 mm 2 m/S 661 mmHg 52%
    11:00 +9°C° 0 mm 2 m/S 660 mmHg 49%
    12:00 +10°C° 0 mm 2 m/S 660 mmHg 45%
    13:00 +12°C° 0 mm 2 m/S 660 mmHg 42%
    14:00 +12°C° 0 mm 2 m/S 660 mmHg 43%
    15:00 +12°C° 0 mm 2 m/S 659 mmHg 44%
    16:00 +12°C° 0 mm 1 m/S 659 mmHg 45%
    17:00 +9°C° 0 mm 1 m/S 658 mmHg 53%
    18:00 +7°C° 0 mm 1 m/S 658 mmHg 62%
    19:00 +4°C° 0 mm 1 m/S 657 mmHg 70%
    20:00 +4°C° 0 mm 1 m/S 657 mmHg 73%
    21:00 +3°C° 0 mm 1 m/S 657 mmHg 75%
    22:00 +3°C° 0 mm 1 m/S 657 mmHg 77%
    23:00 +2°C° 0 mm 1 m/S 657 mmHg 79%

    übermorgen, 24 September, Montag

    Zeit Temperatur Niederschläge Wind Luftdruck Luftfeuchtigkeit
    00:00 +2°C° 0 mm 1 m/S 657 mmHg 81%
    01:00 +2°C° 0 mm 1 m/S 657 mmHg 83%
    02:00 +1°C° 0 mm 1 m/S 656 mmHg 85%
    03:00 +1°C° 0 mm 1 m/S 656 mmHg 86%
    04:00 +1°C° 0 mm 1 m/S 656 mmHg 88%
    05:00 +1°C° 0 mm 1 m/S 656 mmHg 85%
    06:00 +2°C° 0 mm 1 m/S 656 mmHg 82%
    07:00 +3°C° 0 mm 1 m/S 657 mmHg 78%
    08:00 +5°C° 0 mm 1 m/S 657 mmHg 69%
    09:00 +8°C° 0 mm 1 m/S 657 mmHg 60%
    10:00 +9°C° 0 mm 2 m/S 657 mmHg 51%
    11:00 +10°C° 0 mm 2 m/S 657 mmHg 47%
    12:00 +12°C° 0 mm 2 m/S 657 mmHg 43%
    13:00 +13°C° 0 mm 1 m/S 657 mmHg 39%
    14:00 +13°C° 0 mm 1 m/S 657 mmHg 40%
    15:00 +12°C° 0 mm 1 m/S 657 mmHg 42%
    16:00 +12°C° 0 mm 1 m/S 656 mmHg 43%
    17:00 +10°C° 0 mm 1 m/S 656 mmHg 50%
    18:00 +8°C° 0 mm 1 m/S 655 mmHg 56%
    19:00 +6°C° 0 mm 1 m/S 655 mmHg 62%
    20:00 +5°C° 0 mm 1 m/S 655 mmHg 64%
    21:00 +5°C° 0 mm 1 m/S 655 mmHg 66%
    22:00 +4°C° 0 mm 1 m/S 655 mmHg 69%
    23:00 +4°C° 0 mm 1 m/S 655 mmHg 70%

    25 September, Dienstag

    Zeit Temperatur Niederschläge Wind Luftdruck Luftfeuchtigkeit
    00:00 +3°C° 0 mm 1 m/S 654 mmHg 71%
    01:00 +3°C° 0 mm 1 m/S 654 mmHg 72%
    02:00 +3°C° 0 mm 1 m/S 654 mmHg 74%
    03:00 +2°C° 0 mm 1 m/S 654 mmHg 75%
    04:00 +2°C° 0 mm 1 m/S 654 mmHg 77%
    05:00 +3°C° 0 mm 1 m/S 654 mmHg 74%
    06:00 +4°C° 0 mm 1 m/S 655 mmHg 71%
    07:00 +4°C° 0 mm 1 m/S 655 mmHg 69%
    08:00 +7°C° 0 mm 1 m/S 656 mmHg 61%
    09:00 +9°C° 0 mm 1 m/S 656 mmHg 53%
    10:00 +12°C° 0 mm 1 m/S 656 mmHg 46%
    11:00 +13°C° 0 mm 1 m/S 656 mmHg 43%
    12:00 +14°C° 0 mm 1 m/S 656 mmHg 40%
    13:00 +15°C° 0 mm 1 m/S 656 mmHg 37%
    14:00 +14°C° 0 mm 1 m/S 656 mmHg 39%
    15:00 +14°C° 0 mm 1 m/S 656 mmHg 40%
    16:00 +13°C° 0 mm 1 m/S 656 mmHg 41%
    17:00 +11°C° 0 mm 1 m/S 655 mmHg 50%
    18:00 +9°C° 0 mm 1 m/S 655 mmHg 58%
    19:00 +6°C° 0 mm 1 m/S 654 mmHg 66%
    20:00 +6°C° 0 mm 1 m/S 654 mmHg 69%
    21:00 +5°C° 0 mm 1 m/S 654 mmHg 71%
    22:00 +5°C° 0 mm 1 m/S 654 mmHg 74%
    23:00 +4°C° 0 mm 1 m/S 654 mmHg 75%

    26 September, Mittwoch

    Zeit Temperatur Niederschläge Wind Luftdruck Luftfeuchtigkeit
    00:00 +4°C° 0 mm 1 m/S 654 mmHg 75%
    01:00 +4°C° 0 mm 1 m/S 654 mmHg 76%
    02:00 +4°C° 0 mm 1 m/S 654 mmHg 76%
    03:00 +4°C° 0 mm 1 m/S 654 mmHg 77%
    04:00 +4°C° 0 mm 1 m/S 654 mmHg 77%
    05:00 +4°C° 0 mm 1 m/S 655 mmHg 76%
    06:00 +5°C° 0 mm 1 m/S 655 mmHg 74%
    07:00 +5°C° 0 mm 1 m/S 656 mmHg 73%
    08:00 +7°C° 0 mm 1 m/S 656 mmHg 68%
    09:00 +8°C° 0 mm 1 m/S 656 mmHg 63%
    10:00 +9°C° 0 mm 2 m/S 657 mmHg 58%
    11:00 +9°C° 0 mm 2 m/S 657 mmHg 57%
    12:00 +10°C° 0 mm 3 m/S 657 mmHg 56%
    13:00 +10°C° 0 mm 3 m/S 657 mmHg 54%
    14:00 +10°C° 0 mm 3 m/S 657 mmHg 57%
    15:00 +9°C° 0 mm 3 m/S 656 mmHg 59%
    16:00 +9°C° 0 mm 3 m/S 656 mmHg 61%
    17:00 +7°C° 0 mm 2 m/S 656 mmHg 70%
    18:00 +5°C° 0 mm 2 m/S 656 mmHg 79%
    19:00 +3°C° 0 mm 2 m/S 656 mmHg 88%
    20:00 +4°C° 0 mm 1 m/S 656 mmHg 90%
    21:00 +3°C° 0 mm 1 m/S 656 mmHg 91%
    22:00 +2°C° 0 mm 1 m/S 656 mmHg 93%
    23:00 +2°C° 0 mm 1 m/S 655 mmHg 93%

    27 September, Donnerstag

    Zeit Temperatur Niederschläge Wind Luftdruck Luftfeuchtigkeit
    00:00 +2°C° 0 mm 1 m/S 655 mmHg 92%
    01:00 +2°C° 0 mm 1 m/S 655 mmHg 92%
    02:00 +2°C° 0 mm 1 m/S 655 mmHg 92%
    03:00 +2°C° 0 mm 1 m/S 655 mmHg 91%
    04:00 +2°C° 0 mm 1 m/S 654 mmHg 90%
    05:00 +3°C° 0.2 mm 1 m/S 655 mmHg 88%
    06:00 +3°C° 0.2 mm 1 m/S 655 mmHg 86%
    07:00 +3°C° 0.2 mm 2 m/S 655 mmHg 84%
    08:00 +3°C° 0.1 mm 2 m/S 655 mmHg 81%
    09:00 +3°C° 0.1 mm 3 m/S 655 mmHg 77%
    10:00 +4°C° 0.1 mm 4 m/S 655 mmHg 74%
    11:00 +5°C° 0.1 mm 4 m/S 655 mmHg 69%
    12:00 +6°C° 0.1 mm 5 m/S 655 mmHg 63%
    13:00 +6°C° 0.1 mm 5 m/S 655 mmHg 58%
    14:00 +6°C° 0.1 mm 5 m/S 655 mmHg 59%
    15:00 +5°C° 0.1 mm 5 m/S 655 mmHg 60%
    16:00 +5°C° 0.1 mm 5 m/S 655 mmHg 62%
    17:00 +3°C° 0 mm 4 m/S 655 mmHg 69%
    18:00 +1°C° 0 mm 3 m/S 655 mmHg 76%
    19:00 -1°C° 0 mm 2 m/S 655 mmHg 83%
    20:00 -1°C° 0 mm 2 m/S 655 mmHg 85%
    21:00 -1°C° 0 mm 2 m/S 655 mmHg 86%
    22:00 -2°C° 0 mm 2 m/S 656 mmHg 88%
    23:00 -2°C° 0 mm 2 m/S 656 mmHg 89%
    Mehr zeigen